TimeEST,TemperatureF,Dew PointF,Humidity,Sea Level PressureIn,VisibilityMPH,Wind Direction,Wind SpeedMPH,Gust SpeedMPH,PrecipitationIn,Events,Conditions,WindDirDegrees,DateUTC
12:15 AM,33.8,32.0,93,30.41,5.0,Calm,Calm,-,N/A,,Clear,0,2012-11-30 05:15:00
12:35 AM,33.8,32.0,93,30.41,5.0,Calm,Calm,-,N/A,,Clear,0,2012-11-30 05:35:00
12:55 AM,33.8,33.8,100,30.40,5.0,Calm,Calm,-,N/A,,Clear,0,2012-11-30 05:55:00
1:15 AM,33.8,30.2,87,30.39,10.0,Calm,Calm,-,N/A,,Clear,0,2012-11-30 06:15:00
1:35 AM,33.8,32.0,93,30.39,5.0,Calm,Calm,-,N/A,,Clear,0,2012-11-30 06:35:00
1:55 AM,33.8,33.8,100,30.39,5.0,North,4.6,-,N/A,,Clear,350,2012-11-30 06:55:00
2:15 AM,33.8,32.0,93,30.39,5.0,Calm,Calm,-,N/A,,Clear,0,2012-11-30 07:15:00
2:35 AM,33.8,30.2,87,30.39,7.0,Calm,Calm,-,N/A,,Clear,0,2012-11-30 07:35:00
2:55 AM,32.0,30.2,93,30.39,7.0,Calm,Calm,-,N/A,,Clear,0,2012-11-30 07:55:00
3:15 AM,32.0,30.2,93,30.38,10.0,North,3.5,-,N/A,,Clear,350,2012-11-30 08:15:00
3:35 AM,33.8,33.8,100,30.38,9.0,North,3.5,-,N/A,,Clear,360,2012-11-30 08:35:00
3:55 AM,33.8,33.8,100,30.38,9.0,Calm,Calm,-,N/A,,Clear,0,2012-11-30 08:55:00
4:15 AM,33.8,30.2,87,30.37,10.0,North,3.5,-,N/A,,Clear,350,2012-11-30 09:15:00
4:35 AM,30.2,30.2,100,30.37,10.0,North,4.6,-,N/A,,Clear,350,2012-11-30 09:35:00
4:55 AM,32.0,28.4,87,30.37,10.0,NNW,3.5,-,N/A,,Clear,340,2012-11-30 09:55:00
5:15 AM,32.0,30.2,93,30.38,10.0,Calm,Calm,-,N/A,,Clear,0,2012-11-30 10:15:00
5:35 AM,33.8,32.0,93,30.38,9.0,Calm,Calm,-,N/A,,Clear,0,2012-11-30 10:35:00
5:55 AM,32.0,30.2,93,30.38,10.0,Calm,Calm,-,N/A,,Clear,0,2012-11-30 10:55:00
6:50 AM,32.0,30.2,93,30.40,10.0,Calm,Calm,-,N/A,,Clear,0,2012-11-30 11:50:00
7:45 AM,33.8,33.8,100,30.40,10.0,Calm,Calm,-,N/A,,Clear,0,2012-11-30 12:45:00
8:45 AM,44.6,39.2,81,30.41,10.0,Calm,Calm,-,N/A,,Clear,0,2012-11-30 13:45:00
9:45 AM,53.6,44.6,72,30.42,10.0,Variable,5.8,-,N/A,,Clear,0,2012-11-30 14:45:00
10:45 AM,57.2,41.0,55,30.42,10.0,Variable,5.8,-,N/A,,Clear,0,2012-11-30 15:45:00
11:45 AM,60.8,44.6,55,30.39,10.0,ESE,8.1,-,N/A,,Clear,120,2012-11-30 16:45:00
12:45 PM,60.8,42.8,52,30.36,10.0,SE,8.1,-,N/A,,Clear,140,2012-11-30 17:45:00
1:50 PM,60.8,41.0,48,30.34,10.0,SE,8.1,-,N/A,,Clear,140,2012-11-30 18:50:00
2:50 PM,59.0,44.6,59,30.32,10.0,SE,8.1,-,N/A,,Clear,130,2012-11-30 19:50:00
4:45 PM,55.4,48.2,77,30.33,10.0,SE,9.2,-,N/A,,Scattered Clouds,130,2012-11-30 21:45:00
5:45 PM,53.6,48.2,82,30.33,10.0,Calm,Calm,-,N/A,,Clear,0,2012-11-30 22:45:00
6:45 PM,48.2,46.4,93,30.34,10.0,Calm,Calm,-,N/A,,Clear,0,2012-11-30 23:45:00
7:50 PM,44.6,44.6,100,30.34,10.0,Calm,Calm,-,N/A,,Clear,0,2012-12-01 00:50:00
9:45 PM,44.6,44.6,100,30.34,10.0,Calm,Calm,-,N/A,Fog,Patches of Fog,0,2012-12-01 02:45:00
10:55 PM,42.8,42.8,100,30.34,1.5,Calm,Calm,-,N/A,,Clear,0,2012-12-01 03:55:00
11:15 PM,42.8,42.8,100,30.33,2.0,Calm,Calm,-,N/A,,Clear,0,2012-12-01 04:15:00
11:35 PM,42.8,41.0,93,30.34,5.0,Calm,Calm,-,N/A,,Clear,0,2012-12-01 04:35:00
11:55 PM,42.8,42.8,100,30.34,3.0,Calm,Calm,-,N/A,,Clear,0,2012-12-01 04:55:00